Weather History for San Angelo, TX

Change the Weather History Date:

Thursday, March 28, 2013

  Actual Average Record
Temperature  
Mean Temperature 65 °F 61 °F  
Max Temperature 82 °F 75 °F 94 °F (1967)
Min Temperature 48 °F 47 °F 24 °F (1955)
Degree Days  
Heating Degree Days 0 6  
Month to date heating degree days 187 242  
Since 1 July heating degree days 1789 2203  
Cooling Degree Days 0 2  
Month to date cooling degree days 39 30  
Year to date cooling degree days 51 35  
Growing Degree Days 15 (Base 50)    
Moisture  
Dew Point 49 °F    
Average Humidity 61    
Maximum Humidity 86    
Minimum Humidity 35    
Precipitation  
Precipitation 0.00 in 0.04 in 0.61 in (1989)
Month to date precipitation T 1.36  
Year to date precipitation 1.82 3.64  
Snow  
Snow 0.00 in 0.00 in 0.00 in (2002)
Month to date snowfall 0.0 0.1  
Since 1 July snowfall 2.8 2.2  
Snow Depth 0.00 in    
Sea Level Pressure  
Sea Level Pressure 30.04 in    
Wind  
Wind Speed 10 mph (South)    
Max Wind Speed 20 mph    
Max Gust Speed 24 mph    
Visibility 10 miles    
Events      
T = Trace of Precipitation, MM = Missing Value Source: NWS Daily Summary

Daily Weather History Graph

Daily Weather History Graph

Search for Another Location

Airport:

Trip Planner

Search our weather history database for the weather conditions in past years. The results will help you decide how hot, cold, wet, or windy it might be!

Date:

Astronomy

Mar. 28, 2013 Rise Set
Actual Time 7:35 AM CDT 7:58 PM CDT
Civil Twilight 7:11 AM CDT 8:23 PM CDT
Nautical Twilight 6:42 AM CDT 8:51 PM CDT
Astronomical Twilight 6:13 AM CDT 9:20 PM CDT
Moon 9:43 PM CDT (3/28) 8:11 AM CDT (3/28)
Length of Visible Light 13h 12m
Length of Day
12h 23m
Full, 98% of the Moon is Illuminated
Mar 28
Full
Apr 2
Last Quarter
Apr 10
New
Apr 18
First Quarter
Apr 25
Full

Hourly Weather History & Observations

Time (CDT) Temp. Dew Point Humidity Pressure Visibility Wind Dir Wind Speed Gust Speed Precip Events Conditions
12:51 AM 57.9 °F 45.0 °F 62% 30.05 in 10.0 mi South 15.0 mph - N/A   Clear
1:51 AM 57.9 °F 46.0 °F 65% 30.04 in 10.0 mi South 11.5 mph 18.4 mph N/A   Clear
2:51 AM 55.0 °F 46.0 °F 72% 30.05 in 10.0 mi SSW 9.2 mph - N/A   Clear
3:51 AM 55.9 °F 46.0 °F 69% 30.04 in 10.0 mi South 5.8 mph - N/A   Clear
4:51 AM 54.0 °F 46.0 °F 75% 30.03 in 10.0 mi South 4.6 mph - N/A   Clear
5:51 AM 54.0 °F 46.0 °F 75% 30.03 in 10.0 mi SSW 6.9 mph - N/A   Clear
6:51 AM 53.1 °F 46.0 °F 77% 30.04 in 10.0 mi SSW 4.6 mph - N/A   Clear
7:51 AM 48.9 °F 44.1 °F 83% 30.07 in 10.0 mi Calm Calm - N/A   Clear
8:48 AM 53.6 °F 46.4 °F 77% 30.10 in 10.0 mi Calm Calm - N/A   Mostly Cloudy
8:51 AM 55.0 °F 46.9 °F 74% 30.07 in 10.0 mi Calm Calm - N/A   Mostly Cloudy
9:24 AM 62.6 °F 51.8 °F 68% 30.10 in 10.0 mi South 15.0 mph 20.7 mph N/A   Partly Cloudy
9:51 AM 63.0 °F 51.1 °F 65% 30.07 in 10.0 mi South 13.8 mph - N/A   Clear
11:51 AM 71.1 °F 51.1 °F 49% 30.08 in 10.0 mi South 12.7 mph 18.4 mph N/A   Clear
12:51 PM 73.9 °F 51.1 °F 45% 30.06 in 10.0 mi South 10.4 mph 19.6 mph N/A   Clear
1:51 PM 77.0 °F 51.1 °F 40% 30.04 in 10.0 mi South 9.2 mph 19.6 mph N/A   Clear
2:51 PM 79.0 °F 51.1 °F 38% 30.01 in 10.0 mi SSW 8.1 mph 19.6 mph N/A   Clear
3:51 PM 81.0 °F 51.1 °F 35% 29.99 in 10.0 mi South 17.3 mph 24.2 mph N/A   Clear
4:51 PM 80.1 °F 51.1 °F 36% 29.98 in 10.0 mi South 17.3 mph - N/A   Clear
5:51 PM 79.0 °F 48.9 °F 35% 29.98 in 10.0 mi South 16.1 mph - N/A   Clear
6:51 PM 78.1 °F 50.0 °F 37% 29.98 in 10.0 mi South 11.5 mph 24.2 mph N/A   Clear
7:51 PM 75.0 °F 51.1 °F 43% 30.00 in 10.0 mi South 15.0 mph 18.4 mph N/A   Clear
8:51 PM 72.0 °F 52.0 °F 49% 30.02 in 10.0 mi South 16.1 mph 23.0 mph N/A   Clear
9:51 PM 69.1 °F 52.0 °F 54% 30.04 in 10.0 mi South 11.5 mph - N/A   Clear
10:51 PM 66.9 °F 53.1 °F 61% 30.06 in 10.0 mi South 8.1 mph - N/A   Clear
11:51 PM 64.9 °F 54.0 °F 68% 30.07 in 10.0 mi South 9.2 mph - N/A   Clear